This is the latest recevied weather packets stored in our database for station/object KF0TNT. If no packets are shown the sender has not sent any weather packets the latest 10 day(s).
| Time | Temp. | Humidity | Pressure | Rain* | Wind** | Luminosity | Snow |
|---|---|---|---|---|---|---|---|
| 1777773680 | 12.78° C | 25% | 1021.5 hPa | 0 mm | - | 1 W/m² | - |
| 1777773376 | 12.78° C | 25% | 1021.2 hPa | 0 mm | - | 2 W/m² | - |
| 1777773074 | 13.33° C | 25% | 1021.2 hPa | 0 mm | - | 4 W/m² | - |
| 1777772769 | 13.33° C | 25% | 1021.3 hPa | 0 mm | - | 6 W/m² | - |
| 1777772467 | 13.89° C | 25% | 1021 hPa | 0 mm | - | 9 W/m² | - |
| 1777772164 | 13.89° C | 25% | 1021.3 hPa | 0 mm | - | 12 W/m² | - |
| 1777771862 | 14.44° C | 24% | 1021.2 hPa | 0 mm | - | 14 W/m² | - |
| 1777771559 | 15° C | 23% | 1021.1 hPa | 0 mm | - | 19 W/m² | - |
| 1777771256 | 15° C | 23% | 1021.1 hPa | 0 mm | - | 28 W/m² | - |
| 1777770952 | 15.56° C | 23% | 1021.1 hPa | 0 mm | - | 32 W/m² | - |
| 1777770650 | 15.56° C | 23% | 1021.3 hPa | 0 mm | - | 36 W/m² | - |
| 1777770345 | 15.56° C | 23% | 1021.1 hPa | 0 mm | - | 41 W/m² | - |
| 1777770043 | 15.56° C | 23% | 1021.2 hPa | 0 mm | - | 45 W/m² | - |
| 1777769740 | 16.11° C | 23% | 1021.2 hPa | 0 mm | - | 49 W/m² | - |
| 1777769438 | 16.11° C | 22% | 1021.2 hPa | 0 mm | - | 53 W/m² | - |
| 1777769133 | 16.11° C | 22% | 1021.1 hPa | 0 mm | - | 58 W/m² | - |
| 1777768832 | 16.11° C | 22% | 1021.1 hPa | 0 mm | - | 62 W/m² | - |
| 1777768528 | 16.67° C | 22% | 1021.1 hPa | 0 mm | - | 66 W/m² | - |
| 1777768226 | 16.67° C | 22% | 1021.3 hPa | 0 mm | - | 71 W/m² | - |
| 1777767922 | 16.67° C | 22% | 1021.2 hPa | 0 mm | - | 76 W/m² | - |
| 1777767619 | 16.67° C | 21% | 1021.2 hPa | 0 mm | - | 83 W/m² | - |
| 1777767316 | 16.67° C | 22% | 1021.2 hPa | 0 mm | - | 92 W/m² | - |
| 1777767013 | 16.67° C | 21% | 1021.2 hPa | 0 mm | - | 103 W/m² | - |
| 1777766710 | 16.67° C | 21% | 1021.3 hPa | 0 mm | - | 119 W/m² | - |
| 1777766407 | 17.22° C | 21% | 1021.6 hPa | 0 mm | - | 143 W/m² | - |
* Rain latest hour (hover to see other rain measurements)
** Current wind speed in m/s (hover to see current wind gust speed)